This is the latest recevied weather packets stored in our database for station/object K7FED. If no packets are shown the sender has not sent any weather packets the latest 10 day(s).
| Time | Temp. | Humidity | Pressure | Rain* | Wind** | Luminosity | Snow |
|---|---|---|---|---|---|---|---|
| 1777516469 | 22.78° C | 46% | 1012.6 hPa | 0 mm | - | 10 W/m² | - |
| 1777516169 | 22.78° C | 46% | 1012.6 hPa | 0 mm | - | 12 W/m² | - |
| 1777515869 | 22.78° C | 45% | 1012.6 hPa | 0 mm | - | 15 W/m² | - |
| 1777515569 | 23.33° C | 45% | 1012.6 hPa | 0 mm | - | 17 W/m² | - |
| 1777515269 | 23.33° C | 44% | 1012.6 hPa | 0 mm | - | 20 W/m² | - |
| 1777514969 | 23.89° C | 41% | 1012.6 hPa | 0 mm | - | 21 W/m² | - |
| 1777514669 | 23.89° C | 40% | 1012.6 hPa | 0 mm | - | 24 W/m² | - |
| 1777514369 | 23.89° C | 39% | 1012.6 hPa | 0 mm | - | 26 W/m² | - |
| 1777514066 | 24.44° C | 39% | 1012.6 hPa | 0 mm | - | 28 W/m² | - |
| 1777513766 | 24.44° C | 38% | 1012.6 hPa | 0 mm | - | 30 W/m² | - |
| 1777513466 | 24.44° C | 39% | 1012.6 hPa | 0 mm | - | 32 W/m² | - |
| 1777513166 | 25° C | 39% | 1012.5 hPa | 0 mm | - | 34 W/m² | - |
| 1777512867 | 25° C | 40% | 1012.6 hPa | 0 mm | - | 35 W/m² | - |
| 1777512567 | 25° C | 39% | 1012.6 hPa | 0 mm | - | 37 W/m² | - |
| 1777512263 | 25° C | 41% | 1012.5 hPa | 0 mm | - | 39 W/m² | - |
| 1777511963 | 25.56° C | 41% | 1012.5 hPa | 0 mm | - | 41 W/m² | - |
| 1777511664 | 25.56° C | 42% | 1012.6 hPa | 0 mm | - | 44 W/m² | - |
| 1777511364 | 25.56° C | 43% | 1012.6 hPa | 0 mm | - | 45 W/m² | - |
| 1777511064 | 26.11° C | 42% | 1012.6 hPa | 0 mm | - | 49 W/m² | - |
| 1777510763 | 26.11° C | 33% | 1012.6 hPa | 0 mm | - | 52 W/m² | - |
| 1777510464 | 26.67° C | 30% | 1012.5 hPa | 0 mm | - | 52 W/m² | - |
| 1777510163 | 26.67° C | 30% | 1012.5 hPa | 0 mm | - | 54 W/m² | - |
| 1777509864 | 26.67° C | 29% | 1012.5 hPa | 0 mm | - | 176 W/m² | - |
| 1777509564 | 26.67° C | 29% | 1012.5 hPa | 0 mm | - | 54 W/m² | - |
| 1777509263 | 26.67° C | 28% | 1012.6 hPa | 0 mm | - | 352 W/m² | - |
* Rain latest hour (hover to see other rain measurements)
** Current wind speed in m/s (hover to see current wind gust speed)